DODECAPOLE 2 DEB, 41734

Orbit data source: Space-Track

DODECAPOLE 2 DEB, 41734 is space debris in LEO originally from a launch on Fri, 13 Aug 1965 UTC launched from the Air Force Western Test Range (AFWTR). Debris objects in space refer to the collection of defunct objects orbiting the Earth. Examples of debris include non-operational satellites, rocket bodies, and fragments generated from explosions, collisions, or faulty payload assembly.

Loading next visibility...
Identifier
41734, 1965-065U
Orbit
LEO
Country
Flag of USUS
Related business
Manufacturer
Unknown
Mission
Spacecraft
Bus & Motor
Unknown
Mass
Unknown
Launch date (UTC)
1965-08-13 (61 years ago)
Launch vehicle
Unknown
Launch site
Air Force Western Test Range (AFWTR)
Object type
Payload
Rocket body
Debris
Shape & HBR
Unknown shape, 0.1 m
Radar Cross Section
Small (<0.1 m²)

Expand to show TLE details & history
Last TLE update: 3 hours ago

TLE from 3 hours ago
0 DODECAPOLE 2 DEB
1 41734U 65065U   26120.19720016  .00005335  00000-0  24328-2 0  9995
2 41734  90.0440  22.5305 0027236 274.5523  85.2557 14.21322662529505
Epoch: 2026-04-30T04:43Z
TLE epoch observation values (Epoch: 2026-04-30T04:43:58.093Z)
Latitude
-0.00004°
Longitude
93.39118°
Altitude
822.371 km
Speed
7.443 km/s
True Right ascension
01h 30m 07s
True Declination
0° 00' 00"
Sunlit
Object was in daylight at epoch
Visualization orbit readout
Latitude
Unknown
Longitude
Unknown
Altitude
Unknown
Speed
Unknown
Apparent Right ascension
Unknown
Apparent Declination
Unknown
Sunlit
N/A
Visualization observer readout
Local Sidereal Time
15:38:16
Azimuth
Unknown
Elevation
Unknown
Doppler factor
Unknown
Orbital elements
Apogee altitude
837.429 km
Perigee altitude
798.231 km
Semi-major axis
7,195.967 km
Eccentricity
0.00272
Inclination
90.044°
RAAN
22.5305°
Arg. of periapsis
274.5523°
True anomaly
85.56682°
Mean anomaly
85.2557°
Eccentric anomaly
85.41125°
Mean motion
3.55557 °/min
Orbital period
101.25 mins
BSTAR
0.0024328
Loading maneuver chart data...
Computing Atmospheric mass density...
Loading historical data...
Loading historical data...
Loading historical data...
Loading historical data...
Loading historical data...
Loading historical data...
Loading historical data...

Documentation

Showing up to 5 results
|